EW9592 Weather Reports


Display with metric or nautical units.
time (UTC)temp
F
wind
direction
speed
MPH
gust
MPH
rain 1hr
in
rain 24hr
in
rain mn
in
humidity
%
barometer
mb
20260904023057 77 155 0.0 0.0 0.00 0.00 0.00 90 1015.8
20260904021547 77 155 0.0 0.0 0.00 0.00 0.00 90 1015.9
20260904020052 78 155 0.0 0.0 0.00 0.00 0.00 90 1015.9
20260904014558 78 155 0.0 0.0 0.00 0.00 0.00 90 1015.8
20260904013049 78 155 0.0 0.0 0.00 0.00 0.00 89 1015.6
20260904011547 79 155 0.0 0.0 0.00 0.00 0.00 89 1015.6
20260904010051 79 155 0.0 0.0 0.00 0.00 0.00 89 1015.5
20260904004548 80 155 0.0 0.0 0.00 0.00 0.00 89 1015.2
20260904003044 81 155 0.0 0.0 0.00 0.00 0.00 88 1015.0
20260904001645 82 155 0.0 0.0 0.00 0.00 0.00 88 1014.8
20260904000044 83 155 0.0 0.0 0.00 0.00 0.00 88 1014.7
20260903234543 83 155 0.0 0.0 0.00 0.00 0.00 87 1014.6
20260903233046 84 154 0.0 0.0 0.00 0.00 0.00 86 1014.5
20260903231548 85 153 0.0 0.0 0.00 0.00 0.00 84 1014.4
20260903230043 86 153 0.0 0.0 0.00 0.00 0.00 84 1014.4
20260903224559 87 153 0.0 0.0 0.00 0.00 0.00 82 1014.4
20260903223040 88 153 0.0 0.0 0.00 0.00 0.00 80 1014.4
20260903221540 89 154 0.0 0.0 0.00 0.00 0.00 76 1014.5
20260903220045 90 153 0.0 0.0 0.00 0.00 0.00 74 1014.4
20260903214550 91 153 0.0 0.0 0.00 0.00 0.00 75 1014.5
20260903213040 91 128 0.0 1.0 0.00 0.00 0.00 73 1014.6
20260903211540 91 127 0.0 0.0 0.00 0.00 0.00 76 1014.6
20260903210045 89 103 0.0 0.0 0.00 0.00 0.00 76 1014.7
20260903204542 90 104 0.0 0.0 0.00 0.00 0.00 74 1014.9
20260903203031 91 105 0.0 0.0 0.00 0.00 0.00 78 1015.1
20260903201532 90 104 0.0 0.0 0.00 0.00 0.00 76 1015.2
20260903200031 89 105 0.0 0.0 0.00 0.00 0.00 75 1015.4
20260903194528 90 104 0.0 0.0 0.00 0.00 0.00 73 1015.5
20260903193026 91 105 0.0 1.0 0.00 0.00 0.00 72 1015.6
20260903191531 92 133 0.0 1.0 0.00 0.00 0.00 67 1015.7
20260903190022 93 153 0.0 1.0 0.00 0.00 0.00 62 1015.9
20260903184521 93 18 0.0 2.0 0.00 0.00 0.00 59 1016.0
20260903183018 93 112 0.0 2.0 0.00 0.00 0.00 61 1016.1
20260903181515 92 51 0.0 1.0 0.00 0.00 0.00 64 1016.3
20260903180014 93 4 0.0 1.0 0.00 0.00 0.00 67 1016.4
20260903174512 91 350 0.0 1.0 0.00 0.00 0.00 63 1016.5
20260903173010 91 305 0.0 1.0 0.00 0.00 0.00 67 1016.7
20260903171509 92 13 0.0 2.0 0.00 0.00 0.00 62 1016.8
20260903170009 92 63 0.0 2.0 0.00 0.00 0.00 60 1016.9
20260903164508 93 351 0.0 2.0 0.00 0.00 0.00 59 1017.1
20260903163005 92 11 0.0 1.0 0.00 0.00 0.00 61 1017.2
20260903161503 92 327 0.0 3.0 0.00 0.00 0.00 67 1017.3
20260903160128 91 131 0.0 2.0 0.00 0.00 0.00 72 1017.3
20260903154607 89 8 0.0 2.0 0.00 0.00 0.00 73 1017.3
20260903153054 87 129 0.0 1.0 0.00 0.00 0.00 81 1017.4
20260903151547 85 129 0.0 1.0 0.00 0.00 0.00 83 1017.3
20260903150044 83 115 0.0 1.0 0.00 0.00 0.00 84 1017.4
20260903144539 81 174 0.0 1.0 0.00 0.00 0.00 90 1017.4
20260903143043 80 174 0.0 0.0 0.00 0.00 0.00 91 1017.4
20260903141530 78 174 0.0 0.0 0.00 0.00 0.00 91 1017.5
20260903140026 77 174 0.0 0.0 0.00 0.00 0.00 92 1017.5
20260903134523 76 174 0.0 0.0 0.00 0.00 0.00 92 1017.6
20260903133022 75 174 0.0 0.0 0.00 0.00 0.00 92 1017.8
20260903131520 74 174 0.0 0.0 0.00 0.00 0.00 92 1018.0
20260903130020 73 174 0.0 0.0 0.00 0.00 0.00 92 1018.0
20260903124521 72 175 0.0 0.0 0.00 0.00 0.00 92 1018.1
20260903123024 71 174 0.0 0.0 0.00 0.00 0.00 92 1018.0
20260903121518 71 174 0.0 0.0 0.00 0.00 0.00 92 1017.9
20260903120018 71 175 0.0 0.0 0.00 0.00 0.00 92 1017.8
20260903114517 71 174 0.0 0.0 0.00 0.00 0.00 92 1017.9
20260903113014 71 174 0.0 0.0 0.00 0.00 0.00 92 1017.8
20260903111514 71 174 0.0 0.0 0.00 0.00 0.00 92 1017.7
20260903110015 71 174 0.0 0.0 0.00 0.00 0.00 92 1017.5
20260903104511 71 174 0.0 0.0 0.00 0.00 0.00 92 1017.4
20260903103010 71 174 0.0 0.0 0.00 0.00 0.00 92 1017.2
20260903101508 71 175 0.0 0.0 0.00 0.00 0.00 92 1017.3
20260903100008 71 174 0.0 0.0 0.00 0.00 0.00 92 1017.3
20260903094507 71 174 0.0 0.0 0.00 0.00 0.00 92 1017.3
20260903093006 72 174 0.0 0.0 0.00 0.00 0.00 92 1017.2
20260903091504 72 174 0.0 0.0 0.00 0.00 0.00 91 1017.2
20260903090004 72 174 0.0 0.0 0.00 0.00 0.00 91 1017.1
20260903084503 72 174 0.0 0.0 0.00 0.00 0.00 91 1016.9
20260903083100 72 174 0.0 0.0 0.00 0.00 0.00 91 1016.9
20260903081600 72 174 0.0 0.0 0.00 0.00 0.00 91 1016.8
20260903080058 72 174 0.0 0.0 0.00 0.00 0.00 91 1016.7
20260903074558 72 174 0.0 0.0 0.00 0.00 0.00 91 1016.7
20260903073056 73 174 0.0 0.0 0.00 0.00 0.00 91 1016.7
20260903071556 73 174 0.0 0.0 0.00 0.00 0.00 91 1016.6
20260903070058 73 174 0.0 0.0 0.00 0.00 0.00 91 1016.5
20260903064553 73 174 0.0 0.0 0.00 0.00 0.00 91 1016.5
20260903063114 73 174 0.0 0.0 0.00 0.00 0.00 91 1016.6
20260903061551 73 174 0.0 0.0 0.00 0.00 0.00 91 1016.6
20260903060050 74 174 0.0 0.0 0.00 0.00 0.00 91 1016.6
20260903054549 74 174 0.0 0.0 0.00 0.00 0.00 91 1016.6
20260903053047 74 174 0.0 0.0 0.00 0.00 0.00 91 1016.6
20260903051548 74 174 0.0 0.0 0.00 0.00 0.00 91 1016.6
20260903050106 74 174 0.0 0.0 0.00 0.00 0.00 91 1016.5
20260903044543 75 174 0.0 0.0 0.00 0.00 0.00 91 1016.5
20260903043043 75 174 0.0 0.0 0.00 0.00 0.00 91 1016.5
20260903041540 75 174 0.0 0.0 0.00 0.00 0.00 91 1016.6
20260903040038 75 174 0.0 0.0 0.00 0.00 0.00 91 1016.5
20260903034537 75 174 0.0 0.0 0.00 0.00 0.00 91 1016.5
20260903033038 76 174 0.0 0.0 0.00 0.00 0.00 91 1016.5
20260903031535 76 174 0.0 0.0 0.00 0.00 0.00 91 1016.4
20260903030035 76 174 0.0 0.0 0.00 0.00 0.00 91 1016.5
20260903024534 76 174 0.0 0.0 0.00 0.00 0.00 91 1016.5